Regional Weather Roundup
Issued by NWS

Home | Current Version | Previous Version | Text Only | Print | Product List | Glossary Off
Versions: 1 2 3 4 5 6 7 8 9 10 11 12 13 14 15 16 17 18 19 20 21 22 23 24 25 26 27 28 29 30 31 32 33 34 35 36 37 38 39 40 41 42 43 44 45 46 47 48 49 50

000
ASUS43 KOAX 290102
RWRNE

WEATHER ROUNDUP FOR NEBRASKA
NATIONAL WEATHER SERVICE OMAHA NE
800 PM CDT WED JUN 28 2017

NOTES: SATELLITE DATA IS BEING USED TO AUGMENT CLOUD COVER ABOVE
       12000 FEET.
       "FAIR" INDICATES FEW OR NO CLOUDS BELOW 12,000 FEET WITH NO
       SIGNIFICANT WEATHER AND/OR OBSTRUCTIONS TO VISIBILITY.

  * THESE STATIONS DO NOT REPORT WEATHER SUCH AS RAIN...SNOW OR FOG.

NEZ001>004-019>022-054>056-290200-
NEBRASKA PANHANDLE

CITY           SKY/WX    TMP DP  RH WIND       PRES   REMARKS
SCOTTSBLUFF    MOSUNNY   84  48  28 SE14      29.75R
ALLIANCE       MOSUNNY   79  51  37 SE12      29.76S
CHADRON        MOSUNNY   79  48  33 E10       29.71F
GORDON         LGT RAIN  77  53  43 E7        29.76F
KIMBALL        DRIZZLE   74  43  32 N17       29.86R
SIDNEY         SUNNY     75  53  46 E9        29.80R
$$

NEZ057>060-069>072-079>082-290200-
SOUTHWEST NEBRASKA

CITY           SKY/WX    TMP DP  RH WIND       PRES   REMARKS
NORTH PLATTE   MOSUNNY   82  58  43 E6        29.75R
IMPERIAL       CLOUDY    86  46  24 SE9       29.76F
LEXINGTON      SUNNY     82  65  55 CALM      29.75R
MCCOOK         SUNNY     86  54  33 E6        29.73R
OGALLALA       PTSUNNY   83  45  25 E5        29.77R
$$

NEZ005>010-023>029-035>040-094-290200-
NORTH CENTRAL NEBRASKA

CITY           SKY/WX    TMP DP  RH WIND       PRES   REMARKS
VALENTINE      SUNNY     85  43  22 NE8       29.72F
AINSWORTH      SUNNY     81  49  32 W5        29.76R
BROKEN BOW     SUNNY     82  57  42 N5        29.74R
O`NEILL        SUNNY     84  58  40 NW5       29.72R
ORD            SUNNY     81  60  48 CALM      29.70R
THEDFORD       LGT RAIN  79  49  35 NE3G35    29.81R
$$

NEZ041-046>049-061>064-073>077-083>087-290200-
SOUTH CENTRAL NEBRASKA

CITY           SKY/WX    TMP DP  RH WIND       PRES   REMARKS
GRAND ISLAND   SUNNY     82  66  58 S6        29.72R
AURORA         SUNNY     84  65  53 SW3       29.71R
HASTINGS       CLOUDY    86  57  37 N3        29.73S
HEBRON         SUNNY     88  67  49 N5        29.68R HX  91
HOLDREGE       MOSUNNY   83  55  38 SE5       29.75R
KEARNEY *      SUNNY     82  63  51 E6        29.74R
YORK           SUNNY     82  70  65 NW7       29.70S
$$

NEZ011>018-030>034-042>045-290200-
NORTHEAST NEBRASKA

CITY           SKY/WX    TMP DP  RH WIND       PRES   REMARKS
NORFOLK        SUNNY     85  61  44 W5        29.66R
ALBION         SUNNY     85  59  41 N6        29.70R
BLAIR          CLEAR     85  64  49 W6        29.66S
FREMONT        CLEAR     85  64  50 SW5       29.67S
TEKAMAH        CLEAR     87  63  44 W5        29.63S
WAYNE          SUNNY     85  63  47 N3        29.66R
$$

NEZ050>053-065>068-078-088>093-290200-
SOUTHEAST NEBRASKA

CITY           SKY/WX    TMP DP  RH WIND       PRES   REMARKS
LINCOLN        CLEAR     87  65  47 NW8       29.66S
OMAHA EPPLEY   PTCLDY    88  63  43 W8        29.64R
BEATRICE       MOCLDY    85  75  71 N7        29.67R HX  93
FALLS CITY     PTCLDY    86  69  56 S16G29    29.63F HX  90
NEBRASKA CITY  PTCLDY    83  77  81 NW8       29.65R HX  93
PLATTSMOUTH    PTCLDY    84  69  61 NW3       29.65S
$$

NEZ044-045-051>053-067-290200-
OMAHA AREA

CITY           SKY/WX    TMP DP  RH WIND       PRES   REMARKS
OMAHA EPPLEY   PTCLDY    88  63  43 W8        29.64R
BLAIR          CLEAR     85  64  49 W6        29.66S
FREMONT        CLEAR     85  64  50 SW5       29.67S
MILLARD        CLEAR     87  68  52 W8        29.65S HX  90
OFFUTT AFB     CLEAR     85  64  49 NW9       29.63F
PLATTSMOUTH    PTCLDY    84  69  61 NW3       29.65S
WAHOO          FAIR      84  67  56 W3        29.66S
$$




USA.gov is the U.S. government's official web portal to all federal, state and local government web resources and services.